Location: *
(38.9555°S, 57.3572°E)
Time: 01:12:45
(UTC+00:00)

Shenzhou-11 Module - Pass Details

Date: 15 July 2020
Orbit: 256 x 273 km, 42.8° (Epoch: 06 August)

Event Time Altitude Azimuth Distance (km) Brightness Sun altitude
Rises 14:24:00 0° 281° (WNW) 1,970 7.6 -14.6°
Reaches altitude 10° 14:25:59 10° 277° (W) 1,147 5.8 -15.0°
Maximum altitude 14:28:31 57° 196° (SSW) 350 1.8 -15.5°
Enters shadow 14:28:52 49° 156° (SSE) 382 1.7 -15.5°
